Location: Home
(42.5358°N, 72.7383°W)
Time: 19:59:51
(UTC-05:00)

A-11 Canister half - Pass Details

Date: 02 December 2021
Orbit: 1524 x 1684 km, 47.3° (Epoch: 23 January)

Event Time Altitude Azimuth Distance (km) Brightness Sun altitude
Rises 09:00:40 0° 296° (WNW) 4,876 11.1 15.7°
Reaches altitude 10° 09:04:11 10° 287° (WNW) 3,864 10.7 16.1°
Maximum altitude 09:12:38 34° 228° (SW) 2,388 10.3 17.0°
Drops below altitude 10° 09:20:51 10° 167° (SSE) 3,740 12.6 17.8°
Sets 09:24:14 0° 158° (SSE) 4,702 13.1 18.2°
